Time,TemperatureF,DewpointF,PressureIn,WindDirection,WindDirectionDegrees,WindSpeedMPH,WindSpeedGustMPH,Humidity,HourlyPrecipIn,Conditions,Clouds,dailyrainin,SoftwareType,DateUTC
2013-02-26 00:13:00,34.0,21.6,30.16,North,-999,-999.0,-999.0,60,-99.99,,,-99.99,,2013-02-26 05:13:00,
2013-02-26 00:14:00,34.0,21.6,30.16,North,-999,-999.0,-999.0,60,-99.99,,,-99.99,,2013-02-26 05:14:00,
2013-02-26 00:15:00,33.8,21.4,30.16,North,-999,-999.0,-999.0,60,-99.99,,,-99.99,,2013-02-26 05:15:00,
2013-02-26 00:17:00,33.8,21.4,30.16,North,-999,-999.0,-999.0,60,-99.99,,,-99.99,,2013-02-26 05:17:00,
2013-02-26 00:22:00,33.6,21.6,30.19,North,-999,-999.0,-999.0,61,-99.99,,,-99.99,,2013-02-26 05:22:00,
2013-02-26 00:28:00,33.6,21.6,30.19,North,-999,-999.0,-999.0,61,-99.99,,,-99.99,,2013-02-26 05:28:00,
2013-02-26 00:33:00,33.4,21.5,30.19,North,-999,-999.0,-999.0,61,-99.99,,,-99.99,,2013-02-26 05:33:00,
2013-02-26 00:39:00,33.4,21.5,30.19,North,-999,-999.0,-999.0,61,-99.99,,,-99.99,,2013-02-26 05:39:00,
2013-02-26 00:44:00,33.3,21.7,30.19,North,-999,-999.0,-999.0,62,-99.99,,,-99.99,,2013-02-26 05:44:00,
2013-02-26 00:49:00,33.3,21.7,30.16,North,-999,-999.0,-999.0,62,-99.99,,,-99.99,,2013-02-26 05:49:00,
2013-02-26 00:54:00,33.1,21.5,30.16,North,-999,-999.0,-999.0,62,-99.99,,,-99.99,,2013-02-26 05:54:00,
2013-02-26 00:59:00,33.1,21.5,30.16,North,-999,-999.0,-999.0,62,-99.99,,,-99.99,,2013-02-26 05:59:00,
2013-02-26 01:05:00,33.1,21.5,30.19,North,-999,-999.0,-999.0,62,-99.99,,,-99.99,,2013-02-26 06:05:00,
2013-02-26 01:10:00,32.9,21.3,30.19,North,-999,-999.0,-999.0,62,-99.99,,,-99.99,,2013-02-26 06:10:00,
2013-02-26 01:15:00,32.9,21.3,30.19,North,-999,-999.0,-999.0,62,-99.99,,,-99.99,,2013-02-26 06:15:00,
2013-02-26 01:20:00,32.7,21.2,30.19,North,-999,-999.0,-999.0,62,-99.99,,,-99.99,,2013-02-26 06:20:00,
2013-02-26 01:25:00,32.5,21.0,30.19,North,-999,-999.0,-999.0,62,-99.99,,,-99.99,,2013-02-26 06:25:00,
2013-02-26 01:31:00,32.5,21.0,30.19,North,-999,-999.0,-999.0,62,-99.99,,,-99.99,,2013-02-26 06:31:00,
2013-02-26 01:36:00,32.5,21.0,30.19,North,-999,-999.0,-999.0,62,-99.99,,,-99.99,,2013-02-26 06:36:00,
2013-02-26 01:41:00,32.4,20.8,30.19,North,-999,-999.0,-999.0,62,-99.99,,,-99.99,,2013-02-26 06:41:00,
2013-02-26 01:46:00,32.4,20.8,30.19,North,-999,-999.0,-999.0,62,-99.99,,,-99.99,,2013-02-26 06:46:00,
2013-02-26 01:51:00,32.4,20.8,30.19,North,-999,-999.0,-999.0,62,-99.99,,,-99.99,,2013-02-26 06:51:00,
2013-02-26 01:57:00,32.4,20.8,30.19,North,-999,-999.0,-999.0,62,-99.99,,,-99.99,,2013-02-26 06:57:00,
2013-02-26 02:02:00,32.2,20.7,30.19,North,-999,-999.0,-999.0,62,-99.99,,,-99.99,,2013-02-26 07:02:00,
2013-02-26 02:07:00,32.0,20.5,30.19,North,-999,-999.0,-999.0,62,-99.99,,,-99.99,,2013-02-26 07:07:00,
2013-02-26 02:12:00,31.8,20.7,30.19,North,-999,-999.0,-999.0,63,-99.99,,,-99.99,,2013-02-26 07:12:00,
2013-02-26 02:17:00,31.8,20.7,30.19,North,-999,-999.0,-999.0,63,-99.99,,,-99.99,,2013-02-26 07:17:00,
2013-02-26 02:23:00,31.6,20.5,30.19,North,-999,-999.0,-999.0,63,-99.99,,,-99.99,,2013-02-26 07:23:00,
2013-02-26 02:28:00,31.5,20.4,30.19,North,-999,-999.0,-999.0,63,-99.99,,,-99.99,,2013-02-26 07:28:00,
2013-02-26 02:34:00,31.3,20.2,30.19,North,-999,-999.0,-999.0,63,-99.99,,,-99.99,,2013-02-26 07:34:00,
2013-02-26 02:39:00,31.3,20.2,30.19,North,-999,-999.0,-999.0,63,-99.99,,,-99.99,,2013-02-26 07:39:00,
2013-02-26 02:44:00,31.1,20.0,30.19,North,-999,-999.0,-999.0,63,-99.99,,,-99.99,,2013-02-26 07:44:00,
2013-02-26 02:49:00,31.1,20.4,30.19,North,-999,-999.0,-999.0,64,-99.99,,,-99.99,,2013-02-26 07:49:00,
2013-02-26 02:55:00,31.1,20.4,30.19,North,-999,-999.0,-999.0,64,-99.99,,,-99.99,,2013-02-26 07:55:00,
2013-02-26 03:00:00,30.9,20.2,30.19,North,-999,-999.0,-999.0,64,-99.99,,,-99.99,,2013-02-26 08:00:00,
2013-02-26 03:05:00,30.7,19.7,30.19,North,-999,-999.0,-999.0,63,-99.99,,,-99.99,,2013-02-26 08:05:00,
2013-02-26 03:11:00,30.6,19.5,30.19,North,-999,-999.0,-999.0,63,-99.99,,,-99.99,,2013-02-26 08:11:00,
2013-02-26 03:16:00,30.6,19.5,30.19,North,-999,-999.0,-999.0,63,-99.99,,,-99.99,,2013-02-26 08:16:00,
2013-02-26 03:21:00,30.6,19.5,30.19,North,-999,-999.0,-999.0,63,-99.99,,,-99.99,,2013-02-26 08:21:00,
2013-02-26 03:26:00,30.4,19.7,30.19,North,-999,-999.0,-999.0,64,-99.99,,,-99.99,,2013-02-26 08:26:00,
2013-02-26 03:31:00,30.2,19.5,30.19,North,-999,-999.0,-999.0,64,-99.99,,,-99.99,,2013-02-26 08:31:00,
2013-02-26 03:37:00,30.2,19.5,30.19,North,-999,-999.0,-999.0,64,-99.99,,,-99.99,,2013-02-26 08:37:00,
2013-02-26 03:42:00,30.2,19.5,30.19,North,-999,-999.0,-999.0,64,-99.99,,,-99.99,,2013-02-26 08:42:00,
2013-02-26 03:47:00,30.2,19.5,30.19,North,-999,-999.0,-999.0,64,-99.99,,,-99.99,,2013-02-26 08:47:00,
2013-02-26 03:52:00,30.2,19.5,30.19,North,-999,-999.0,-999.0,64,-99.99,,,-99.99,,2013-02-26 08:52:00,
2013-02-26 03:57:00,30.0,19.4,30.19,North,-999,-999.0,-999.0,64,-99.99,,,-99.99,,2013-02-26 08:57:00,
2013-02-26 04:03:00,30.0,19.4,30.19,North,-999,-999.0,-999.0,64,-99.99,,,-99.99,,2013-02-26 09:03:00,
2013-02-26 04:08:00,29.8,19.2,30.19,North,-999,-999.0,-999.0,64,-99.99,,,-99.99,,2013-02-26 09:08:00,
2013-02-26 04:13:00,29.7,19.0,30.19,North,-999,-999.0,-999.0,64,-99.99,,,-99.99,,2013-02-26 09:13:00,
2013-02-26 04:18:00,29.7,19.0,30.16,North,-999,-999.0,-999.0,64,-99.99,,,-99.99,,2013-02-26 09:18:00,
2013-02-26 04:23:00,29.7,19.0,30.16,North,-999,-999.0,-999.0,64,-99.99,,,-99.99,,2013-02-26 09:23:00,
2013-02-26 04:29:00,29.5,18.8,30.16,North,-999,-999.0,-999.0,64,-99.99,,,-99.99,,2013-02-26 09:29:00,
2013-02-26 04:34:00,29.5,18.8,30.19,North,-999,-999.0,-999.0,64,-99.99,,,-99.99,,2013-02-26 09:34:00,
2013-02-26 04:39:00,29.5,18.8,30.19,North,-999,-999.0,-999.0,64,-99.99,,,-99.99,,2013-02-26 09:39:00,
2013-02-26 04:44:00,29.5,18.8,30.19,North,-999,-999.0,-999.0,64,-99.99,,,-99.99,,2013-02-26 09:44:00,
2013-02-26 04:49:00,29.5,18.8,30.19,North,-999,-999.0,-999.0,64,-99.99,,,-99.99,,2013-02-26 09:49:00,
2013-02-26 04:55:00,29.3,18.7,30.19,North,-999,-999.0,-999.0,64,-99.99,,,-99.99,,2013-02-26 09:55:00,
2013-02-26 05:00:00,29.3,18.7,30.19,North,-999,-999.0,-999.0,64,-99.99,,,-99.99,,2013-02-26 10:00:00,
2013-02-26 05:06:00,29.1,18.9,30.19,North,-999,-999.0,-999.0,65,-99.99,,,-99.99,,2013-02-26 10:06:00,
2013-02-26 05:11:00,29.3,19.0,30.19,North,-999,-999.0,-999.0,65,-99.99,,,-99.99,,2013-02-26 10:11:00,
2013-02-26 05:16:00,29.1,18.9,30.19,North,-999,-999.0,-999.0,65,-99.99,,,-99.99,,2013-02-26 10:16:00,
2013-02-26 05:21:00,29.1,18.9,30.19,North,-999,-999.0,-999.0,65,-99.99,,,-99.99,,2013-02-26 10:21:00,
2013-02-26 05:27:00,28.9,18.3,30.19,North,-999,-999.0,-999.0,64,-99.99,,,-99.99,,2013-02-26 10:27:00,
2013-02-26 05:32:00,28.9,18.7,30.19,North,-999,-999.0,-999.0,65,-99.99,,,-99.99,,2013-02-26 10:32:00,
2013-02-26 05:38:00,28.9,18.7,30.19,North,-999,-999.0,-999.0,65,-99.99,,,-99.99,,2013-02-26 10:38:00,
2013-02-26 05:43:00,28.9,18.7,30.19,North,-999,-999.0,-999.0,65,-99.99,,,-99.99,,2013-02-26 10:43:00,
2013-02-26 05:48:00,28.9,18.7,30.19,North,-999,-999.0,-999.0,65,-99.99,,,-99.99,,2013-02-26 10:48:00,
2013-02-26 05:54:00,28.9,19.0,30.19,North,-999,-999.0,-999.0,66,-99.99,,,-99.99,,2013-02-26 10:54:00,
2013-02-26 05:59:00,29.1,19.2,30.19,North,-999,-999.0,-999.0,66,-99.99,,,-99.99,,2013-02-26 10:59:00,
2013-02-26 06:04:00,29.1,19.6,30.19,North,-999,-999.0,-999.0,67,-99.99,,,-99.99,,2013-02-26 11:04:00,
2013-02-26 06:09:00,28.9,19.4,30.19,North,-999,-999.0,-999.0,67,-99.99,,,-99.99,,2013-02-26 11:09:00,
2013-02-26 06:15:00,29.1,19.6,30.19,North,-999,-999.0,-999.0,67,-99.99,,,-99.99,,2013-02-26 11:15:00,
2013-02-26 06:20:00,29.1,19.6,30.16,North,-999,-999.0,-999.0,67,-99.99,,,-99.99,,2013-02-26 11:20:00,
2013-02-26 06:26:00,29.1,19.6,30.16,North,-999,-999.0,-999.0,67,-99.99,,,-99.99,,2013-02-26 11:26:00,
2013-02-26 06:31:00,29.1,19.9,30.16,North,-999,-999.0,-999.0,68,-99.99,,,-99.99,,2013-02-26 11:31:00,
2013-02-26 06:36:00,29.1,19.9,30.16,North,-999,-999.0,-999.0,68,-99.99,,,-99.99,,2013-02-26 11:36:00,
2013-02-26 06:41:00,29.1,19.9,30.16,North,-999,-999.0,-999.0,68,-99.99,,,-99.99,,2013-02-26 11:41:00,
2013-02-26 06:47:00,29.1,19.9,30.16,North,-999,-999.0,-999.0,68,-99.99,,,-99.99,,2013-02-26 11:47:00,
2013-02-26 06:52:00,29.3,20.1,30.16,North,-999,-999.0,-999.0,68,-99.99,,,-99.99,,2013-02-26 11:52:00,
2013-02-26 06:57:00,29.3,20.1,30.16,North,-999,-999.0,-999.0,68,-99.99,,,-99.99,,2013-02-26 11:57:00,
2013-02-26 07:03:00,29.3,20.1,30.16,North,-999,-999.0,-999.0,68,-99.99,,,-99.99,,2013-02-26 12:03:00,
2013-02-26 07:08:00,29.5,20.3,30.16,North,-999,-999.0,-999.0,68,-99.99,,,-99.99,,2013-02-26 12:08:00,
2013-02-26 07:14:00,29.5,20.3,30.16,North,-999,-999.0,-999.0,68,-99.99,,,-99.99,,2013-02-26 12:14:00,
2013-02-26 07:19:00,30.0,20.8,30.16,North,-999,-999.0,-999.0,68,-99.99,,,-99.99,,2013-02-26 12:19:00,
2013-02-26 07:24:00,31.5,21.8,30.16,North,-999,-999.0,-999.0,67,-99.99,,,-99.99,,2013-02-26 12:24:00,
2013-02-26 07:29:00,32.4,22.3,30.16,North,-999,-999.0,-999.0,66,-99.99,,,-99.99,,2013-02-26 12:29:00,
2013-02-26 07:35:00,32.0,21.6,30.16,North,-999,-999.0,-999.0,65,-99.99,,,-99.99,,2013-02-26 12:35:00,
2013-02-26 07:40:00,31.5,21.1,30.16,North,-999,-999.0,-999.0,65,-99.99,,,-99.99,,2013-02-26 12:40:00,
2013-02-26 07:46:00,31.3,20.9,30.16,North,-999,-999.0,-999.0,65,-99.99,,,-99.99,,2013-02-26 12:46:00,
2013-02-26 07:53:00,31.1,20.7,30.16,North,-999,-999.0,-999.0,65,-99.99,,,-99.99,,2013-02-26 12:53:00,
2013-02-26 07:58:00,31.3,20.9,30.16,North,-999,-999.0,-999.0,65,-99.99,,,-99.99,,2013-02-26 12:58:00,
2013-02-26 08:03:00,31.5,21.1,30.16,North,-999,-999.0,-999.0,65,-99.99,,,-99.99,,2013-02-26 13:03:00,
2013-02-26 08:08:00,32.0,21.6,30.16,North,-999,-999.0,-999.0,65,-99.99,,,-99.99,,2013-02-26 13:08:00,
2013-02-26 08:14:00,33.1,22.3,30.16,North,-999,-999.0,-999.0,64,-99.99,,,-99.99,,2013-02-26 13:14:00,
2013-02-26 08:19:00,32.9,21.7,30.16,North,-999,-999.0,-999.0,63,-99.99,,,-99.99,,2013-02-26 13:19:00,
2013-02-26 08:25:00,32.7,21.6,30.16,North,-999,-999.0,-999.0,63,-99.99,,,-99.99,,2013-02-26 13:25:00,
2013-02-26 08:30:00,33.8,22.2,30.16,North,-999,-999.0,-999.0,62,-99.99,,,-99.99,,2013-02-26 13:30:00,
2013-02-26 08:35:00,33.6,21.6,30.16,North,-999,-999.0,-999.0,61,-99.99,,,-99.99,,2013-02-26 13:35:00,
2013-02-26 08:40:00,33.6,21.6,30.16,North,-999,-999.0,-999.0,61,-99.99,,,-99.99,,2013-02-26 13:40:00,
2013-02-26 08:45:00,33.8,21.4,30.16,North,-999,-999.0,-999.0,60,-99.99,,,-99.99,,2013-02-26 13:45:00,
2013-02-26 08:51:00,34.0,21.6,30.16,North,-999,-999.0,-999.0,60,-99.99,,,-99.99,,2013-02-26 13:51:00,
2013-02-26 08:56:00,34.3,21.5,30.16,North,-999,-999.0,-999.0,59,-99.99,,,-99.99,,2013-02-26 13:56:00,
2013-02-26 09:01:00,34.3,21.5,30.16,North,-999,-999.0,-999.0,59,-99.99,,,-99.99,,2013-02-26 14:01:00,
2013-02-26 09:06:00,34.5,21.3,30.16,North,-999,-999.0,-999.0,58,-99.99,,,-99.99,,2013-02-26 14:06:00,
2013-02-26 09:11:00,35.1,21.8,30.16,North,-999,-999.0,-999.0,58,-99.99,,,-99.99,,2013-02-26 14:11:00,
2013-02-26 09:17:00,35.4,21.7,30.16,North,-999,-999.0,-999.0,57,-99.99,,,-99.99,,2013-02-26 14:17:00,
2013-02-26 09:22:00,35.8,21.7,30.16,North,-999,-999.0,-999.0,56,-99.99,,,-99.99,,2013-02-26 14:22:00,
2013-02-26 09:27:00,36.1,21.6,30.16,North,-999,-999.0,-999.0,55,-99.99,,,-99.99,,2013-02-26 14:27:00,
2013-02-26 09:32:00,36.3,21.7,30.16,North,-999,-999.0,-999.0,55,-99.99,,,-99.99,,2013-02-26 14:32:00,
2013-02-26 09:37:00,36.7,21.6,30.16,North,-999,-999.0,-999.0,54,-99.99,,,-99.99,,2013-02-26 14:37:00,
2013-02-26 09:43:00,36.9,21.4,30.16,North,-999,-999.0,-999.0,53,-99.99,,,-99.99,,2013-02-26 14:43:00,
2013-02-26 09:48:00,37.4,21.9,30.16,North,-999,-999.0,-999.0,53,-99.99,,,-99.99,,2013-02-26 14:48:00,
2013-02-26 09:54:00,37.6,21.6,30.16,North,-999,-999.0,-999.0,52,-99.99,,,-99.99,,2013-02-26 14:54:00,
2013-02-26 09:59:00,37.8,21.8,30.16,North,-999,-999.0,-999.0,52,-99.99,,,-99.99,,2013-02-26 14:59:00,
2013-02-26 10:04:00,38.1,22.1,30.13,North,-999,-999.0,-999.0,52,-99.99,,,-99.99,,2013-02-26 15:04:00,
2013-02-26 10:09:00,38.5,22.0,30.13,North,-999,-999.0,-999.0,51,-99.99,,,-99.99,,2013-02-26 15:09:00,
2013-02-26 10:14:00,38.7,22.1,30.13,North,-999,-999.0,-999.0,51,-99.99,,,-99.99,,2013-02-26 15:14:00,
2013-02-26 10:20:00,38.8,22.3,30.13,North,-999,-999.0,-999.0,51,-99.99,,,-99.99,,2013-02-26 15:20:00,
2013-02-26 10:25:00,39.2,22.2,30.13,North,-999,-999.0,-999.0,50,-99.99,,,-99.99,,2013-02-26 15:25:00,
2013-02-26 10:31:00,39.6,22.5,30.13,North,-999,-999.0,-999.0,50,-99.99,,,-99.99,,2013-02-26 15:31:00,
2013-02-26 10:36:00,39.9,22.4,30.13,North,-999,-999.0,-999.0,49,-99.99,,,-99.99,,2013-02-26 15:36:00,
2013-02-26 10:41:00,40.5,22.9,30.13,North,-999,-999.0,-999.0,49,-99.99,,,-99.99,,2013-02-26 15:41:00,
2013-02-26 10:46:00,40.8,22.7,30.13,North,-999,-999.0,-999.0,48,-99.99,,,-99.99,,2013-02-26 15:46:00,
2013-02-26 10:51:00,41.2,22.5,30.10,North,-999,-999.0,-999.0,47,-99.99,,,-99.99,,2013-02-26 15:51:00,
2013-02-26 10:57:00,41.5,22.3,30.10,North,-999,-999.0,-999.0,46,-99.99,,,-99.99,,2013-02-26 15:57:00,
2013-02-26 11:02:00,42.1,22.8,30.10,North,-999,-999.0,-999.0,46,-99.99,,,-99.99,,2013-02-26 16:02:00,
2013-02-26 11:07:00,42.3,22.5,30.10,North,-999,-999.0,-999.0,45,-99.99,,,-99.99,,2013-02-26 16:07:00,
2013-02-26 11:12:00,42.6,22.8,30.10,North,-999,-999.0,-999.0,45,-99.99,,,-99.99,,2013-02-26 16:12:00,
2013-02-26 11:17:00,42.8,22.4,30.10,North,-999,-999.0,-999.0,44,-99.99,,,-99.99,,2013-02-26 16:17:00,
2013-02-26 11:23:00,43.2,22.2,30.10,North,-999,-999.0,-999.0,43,-99.99,,,-99.99,,2013-02-26 16:23:00,
2013-02-26 11:28:00,43.3,22.4,30.10,North,-999,-999.0,-999.0,43,-99.99,,,-99.99,,2013-02-26 16:28:00,
2013-02-26 11:33:00,43.7,22.7,30.10,North,-999,-999.0,-999.0,43,-99.99,,,-99.99,,2013-02-26 16:33:00,
2013-02-26 11:38:00,43.7,22.2,30.10,North,-999,-999.0,-999.0,42,-99.99,,,-99.99,,2013-02-26 16:38:00,
2013-02-26 11:44:00,44.1,22.5,30.10,North,-999,-999.0,-999.0,42,-99.99,,,-99.99,,2013-02-26 16:44:00,
2013-02-26 11:49:00,44.1,22.5,30.07,North,-999,-999.0,-999.0,42,-99.99,,,-99.99,,2013-02-26 16:49:00,
2013-02-26 11:54:00,44.2,22.7,30.07,North,-999,-999.0,-999.0,42,-99.99,,,-99.99,,2013-02-26 16:54:00,
2013-02-26 11:59:00,44.4,22.8,30.07,North,-999,-999.0,-999.0,42,-99.99,,,-99.99,,2013-02-26 16:59:00,
2013-02-26 12:04:00,44.4,22.8,30.07,North,-999,-999.0,-999.0,42,-99.99,,,-99.99,,2013-02-26 17:04:00,
2013-02-26 12:09:00,44.4,22.8,30.07,North,-999,-999.0,-999.0,42,-99.99,,,-99.99,,2013-02-26 17:09:00,
2013-02-26 12:15:00,44.4,22.8,30.07,North,-999,-999.0,-999.0,42,-99.99,,,-99.99,,2013-02-26 17:15:00,
2013-02-26 12:20:00,44.4,22.8,30.07,North,-999,-999.0,-999.0,42,-99.99,,,-99.99,,2013-02-26 17:20:00,
2013-02-26 12:25:00,44.6,22.4,30.07,North,-999,-999.0,-999.0,41,-99.99,,,-99.99,,2013-02-26 17:25:00,
2013-02-26 12:30:00,44.6,22.4,30.07,North,-999,-999.0,-999.0,41,-99.99,,,-99.99,,2013-02-26 17:30:00,
2013-02-26 12:37:00,45.0,22.7,30.04,North,-999,-999.0,-999.0,41,-99.99,,,-99.99,,2013-02-26 17:37:00,
2013-02-26 12:42:00,44.8,22.6,30.04,North,-999,-999.0,-999.0,41,-99.99,,,-99.99,,2013-02-26 17:42:00,
2013-02-26 12:47:00,45.0,22.1,30.04,North,-999,-999.0,-999.0,40,-99.99,,,-99.99,,2013-02-26 17:47:00,
2013-02-26 12:52:00,45.0,22.7,30.04,North,-999,-999.0,-999.0,41,-99.99,,,-99.99,,2013-02-26 17:52:00,
2013-02-26 12:58:00,45.1,22.9,30.04,North,-999,-999.0,-999.0,41,-99.99,,,-99.99,,2013-02-26 17:58:00,
2013-02-26 13:03:00,45.1,22.9,30.04,North,-999,-999.0,-999.0,41,-99.99,,,-99.99,,2013-02-26 18:03:00,
2013-02-26 13:09:00,45.0,22.7,30.04,North,-999,-999.0,-999.0,41,-99.99,,,-99.99,,2013-02-26 18:09:00,
2013-02-26 13:14:00,44.6,22.4,30.04,North,-999,-999.0,-999.0,41,-99.99,,,-99.99,,2013-02-26 18:14:00,
2013-02-26 13:19:00,44.6,22.4,30.01,North,-999,-999.0,-999.0,41,-99.99,,,-99.99,,2013-02-26 18:19:00,
2013-02-26 13:24:00,44.6,22.4,30.01,North,-999,-999.0,-999.0,41,-99.99,,,-99.99,,2013-02-26 18:24:00,
2013-02-26 13:29:00,44.8,22.6,30.01,North,-999,-999.0,-999.0,41,-99.99,,,-99.99,,2013-02-26 18:29:00,
2013-02-26 13:35:00,44.6,22.4,30.01,North,-999,-999.0,-999.0,41,-99.99,,,-99.99,,2013-02-26 18:35:00,
2013-02-26 13:40:00,44.8,22.6,30.01,North,-999,-999.0,-999.0,41,-99.99,,,-99.99,,2013-02-26 18:40:00,
2013-02-26 13:45:00,45.0,22.7,30.01,North,-999,-999.0,-999.0,41,-99.99,,,-99.99,,2013-02-26 18:45:00,
2013-02-26 13:50:00,45.0,22.7,30.01,North,-999,-999.0,-999.0,41,-99.99,,,-99.99,,2013-02-26 18:50:00,
2013-02-26 13:55:00,45.1,22.9,30.01,North,-999,-999.0,-999.0,41,-99.99,,,-99.99,,2013-02-26 18:55:00,
2013-02-26 14:01:00,45.1,22.3,30.01,North,-999,-999.0,-999.0,40,-99.99,,,-99.99,,2013-02-26 19:01:00,
2013-02-26 14:06:00,45.1,22.3,29.98,North,-999,-999.0,-999.0,40,-99.99,,,-99.99,,2013-02-26 19:06:00,
2013-02-26 14:11:00,45.1,22.3,29.98,North,-999,-999.0,-999.0,40,-99.99,,,-99.99,,2013-02-26 19:11:00,
2013-02-26 14:17:00,45.1,22.3,29.98,North,-999,-999.0,-999.0,40,-99.99,,,-99.99,,2013-02-26 19:17:00,
2013-02-26 14:22:00,45.0,22.1,29.98,North,-999,-999.0,-999.0,40,-99.99,,,-99.99,,2013-02-26 19:22:00,
2013-02-26 14:28:00,45.0,22.1,29.98,North,-999,-999.0,-999.0,40,-99.99,,,-99.99,,2013-02-26 19:28:00,
2013-02-26 14:33:00,44.8,22.0,29.98,North,-999,-999.0,-999.0,40,-99.99,,,-99.99,,2013-02-26 19:33:00,
2013-02-26 14:39:00,44.6,21.8,29.98,North,-999,-999.0,-999.0,40,-99.99,,,-99.99,,2013-02-26 19:39:00,
2013-02-26 14:44:00,44.4,21.7,29.98,North,-999,-999.0,-999.0,40,-99.99,,,-99.99,,2013-02-26 19:44:00,
2013-02-26 14:49:00,44.2,21.5,29.98,North,-999,-999.0,-999.0,40,-99.99,,,-99.99,,2013-02-26 19:49:00,
2013-02-26 14:55:00,44.2,22.1,29.98,North,-999,-999.0,-999.0,41,-99.99,,,-99.99,,2013-02-26 19:55:00,
2013-02-26 15:00:00,44.4,22.2,29.98,North,-999,-999.0,-999.0,41,-99.99,,,-99.99,,2013-02-26 20:00:00,
2013-02-26 15:05:00,44.4,22.2,29.98,North,-999,-999.0,-999.0,41,-99.99,,,-99.99,,2013-02-26 20:05:00,
2013-02-26 15:11:00,44.2,21.5,29.98,North,-999,-999.0,-999.0,40,-99.99,,,-99.99,,2013-02-26 20:11:00,
2013-02-26 15:16:00,44.2,21.5,29.98,North,-999,-999.0,-999.0,40,-99.99,,,-99.99,,2013-02-26 20:16:00,
2013-02-26 15:22:00,44.2,21.5,29.98,North,-999,-999.0,-999.0,40,-99.99,,,-99.99,,2013-02-26 20:22:00,
2013-02-26 15:27:00,44.2,22.1,29.98,North,-999,-999.0,-999.0,41,-99.99,,,-99.99,,2013-02-26 20:27:00,
2013-02-26 15:32:00,44.1,21.9,29.95,North,-999,-999.0,-999.0,41,-99.99,,,-99.99,,2013-02-26 20:32:00,
2013-02-26 15:37:00,44.1,21.9,29.95,North,-999,-999.0,-999.0,41,-99.99,,,-99.99,,2013-02-26 20:37:00,
2013-02-26 15:43:00,44.1,21.9,29.95,North,-999,-999.0,-999.0,41,-99.99,,,-99.99,,2013-02-26 20:43:00,
2013-02-26 15:48:00,43.9,21.8,29.98,North,-999,-999.0,-999.0,41,-99.99,,,-99.99,,2013-02-26 20:48:00,
2013-02-26 15:53:00,44.1,21.9,29.98,North,-999,-999.0,-999.0,41,-99.99,,,-99.99,,2013-02-26 20:53:00,
2013-02-26 15:58:00,44.1,21.9,29.98,North,-999,-999.0,-999.0,41,-99.99,,,-99.99,,2013-02-26 20:58:00,
2013-02-26 16:03:00,44.1,21.9,29.95,North,-999,-999.0,-999.0,41,-99.99,,,-99.99,,2013-02-26 21:03:00,
2013-02-26 16:09:00,43.9,21.8,29.95,North,-999,-999.0,-999.0,41,-99.99,,,-99.99,,2013-02-26 21:09:00,
2013-02-26 16:14:00,43.9,21.8,29.95,North,-999,-999.0,-999.0,41,-99.99,,,-99.99,,2013-02-26 21:14:00,
2013-02-26 16:19:00,43.9,21.8,29.95,North,-999,-999.0,-999.0,41,-99.99,,,-99.99,,2013-02-26 21:19:00,
2013-02-26 16:24:00,43.7,21.6,29.95,North,-999,-999.0,-999.0,41,-99.99,,,-99.99,,2013-02-26 21:24:00,
2013-02-26 16:29:00,43.7,21.6,29.95,North,-999,-999.0,-999.0,41,-99.99,,,-99.99,,2013-02-26 21:29:00,
2013-02-26 16:35:00,43.5,21.4,29.95,North,-999,-999.0,-999.0,41,-99.99,,,-99.99,,2013-02-26 21:35:00,
2013-02-26 16:40:00,43.5,21.4,29.95,North,-999,-999.0,-999.0,41,-99.99,,,-99.99,,2013-02-26 21:40:00,
2013-02-26 16:45:00,43.5,21.4,29.95,North,-999,-999.0,-999.0,41,-99.99,,,-99.99,,2013-02-26 21:45:00,
2013-02-26 16:50:00,43.5,21.4,29.92,North,-999,-999.0,-999.0,41,-99.99,,,-99.99,,2013-02-26 21:50:00,
2013-02-26 16:55:00,43.3,21.3,29.92,North,-999,-999.0,-999.0,41,-99.99,,,-99.99,,2013-02-26 21:55:00,
2013-02-26 17:01:00,43.5,21.4,29.92,North,-999,-999.0,-999.0,41,-99.99,,,-99.99,,2013-02-26 22:01:00,
2013-02-26 17:06:00,43.3,21.3,29.92,North,-999,-999.0,-999.0,41,-99.99,,,-99.99,,2013-02-26 22:06:00,
2013-02-26 17:11:00,43.3,21.3,29.92,North,-999,-999.0,-999.0,41,-99.99,,,-99.99,,2013-02-26 22:11:00,
2013-02-26 17:16:00,43.3,21.3,29.92,North,-999,-999.0,-999.0,41,-99.99,,,-99.99,,2013-02-26 22:16:00,
2013-02-26 17:22:00,43.2,21.1,29.95,North,-999,-999.0,-999.0,41,-99.99,,,-99.99,,2013-02-26 22:22:00,
2013-02-26 17:27:00,43.2,21.1,29.95,North,-999,-999.0,-999.0,41,-99.99,,,-99.99,,2013-02-26 22:27:00,
2013-02-26 17:33:00,43.2,21.1,29.95,North,-999,-999.0,-999.0,41,-99.99,,,-99.99,,2013-02-26 22:33:00,
2013-02-26 17:38:00,43.0,20.9,29.95,North,-999,-999.0,-999.0,41,-99.99,,,-99.99,,2013-02-26 22:38:00,
2013-02-26 17:43:00,43.0,20.9,29.95,North,-999,-999.0,-999.0,41,-99.99,,,-99.99,,2013-02-26 22:43:00,
2013-02-26 17:48:00,43.0,20.9,29.95,North,-999,-999.0,-999.0,41,-99.99,,,-99.99,,2013-02-26 22:48:00,
2013-02-26 17:53:00,43.0,21.5,29.95,North,-999,-999.0,-999.0,42,-99.99,,,-99.99,,2013-02-26 22:53:00,
2013-02-26 17:59:00,42.8,21.4,29.95,North,-999,-999.0,-999.0,42,-99.99,,,-99.99,,2013-02-26 22:59:00,
2013-02-26 18:04:00,42.8,21.4,29.95,North,-999,-999.0,-999.0,42,-99.99,,,-99.99,,2013-02-26 23:04:00,
2013-02-26 18:09:00,42.6,21.2,29.95,North,-999,-999.0,-999.0,42,-99.99,,,-99.99,,2013-02-26 23:09:00,
2013-02-26 18:15:00,42.6,21.2,29.95,North,-999,-999.0,-999.0,42,-99.99,,,-99.99,,2013-02-26 23:15:00,
2013-02-26 18:20:00,42.6,21.2,29.92,North,-999,-999.0,-999.0,42,-99.99,,,-99.99,,2013-02-26 23:20:00,
2013-02-26 18:25:00,42.4,21.0,29.92,North,-999,-999.0,-999.0,42,-99.99,,,-99.99,,2013-02-26 23:25:00,
2013-02-26 18:30:00,42.4,21.6,29.92,North,-999,-999.0,-999.0,43,-99.99,,,-99.99,,2013-02-26 23:30:00,
2013-02-26 18:36:00,42.4,21.6,29.92,North,-999,-999.0,-999.0,43,-99.99,,,-99.99,,2013-02-26 23:36:00,
2013-02-26 18:41:00,42.4,21.6,29.92,North,-999,-999.0,-999.0,43,-99.99,,,-99.99,,2013-02-26 23:41:00,
2013-02-26 18:46:00,42.4,21.6,29.92,North,-999,-999.0,-999.0,43,-99.99,,,-99.99,,2013-02-26 23:46:00,
2013-02-26 18:51:00,42.4,21.6,29.92,North,-999,-999.0,-999.0,43,-99.99,,,-99.99,,2013-02-26 23:51:00,
2013-02-26 18:56:00,42.4,21.6,29.92,North,-999,-999.0,-999.0,43,-99.99,,,-99.99,,2013-02-26 23:56:00,
2013-02-26 19:02:00,42.3,22.0,29.92,North,-999,-999.0,-999.0,44,-99.99,,,-99.99,,2013-02-27 00:02:00,
2013-02-26 19:07:00,42.1,21.8,29.92,North,-999,-999.0,-999.0,44,-99.99,,,-99.99,,2013-02-27 00:07:00,
2013-02-26 19:12:00,42.1,22.3,29.92,North,-999,-999.0,-999.0,45,-99.99,,,-99.99,,2013-02-27 00:12:00,
2013-02-26 19:17:00,41.9,22.2,29.92,North,-999,-999.0,-999.0,45,-99.99,,,-99.99,,2013-02-27 00:17:00,
2013-02-26 19:22:00,41.7,22.5,29.92,North,-999,-999.0,-999.0,46,-99.99,,,-99.99,,2013-02-27 00:22:00,
2013-02-26 19:28:00,41.5,22.9,29.92,North,-999,-999.0,-999.0,47,-99.99,,,-99.99,,2013-02-27 00:28:00,
2013-02-26 19:33:00,41.2,23.0,29.92,North,-999,-999.0,-999.0,48,-99.99,,,-99.99,,2013-02-27 00:33:00,
2013-02-26 19:38:00,40.8,23.7,29.92,North,-999,-999.0,-999.0,50,-99.99,,,-99.99,,2013-02-27 00:38:00,
2013-02-26 19:43:00,40.6,23.5,29.92,North,-999,-999.0,-999.0,50,-99.99,,,-99.99,,2013-02-27 00:43:00,
2013-02-26 19:48:00,40.3,24.1,29.92,North,-999,-999.0,-999.0,52,-99.99,,,-99.99,,2013-02-27 00:48:00,
2013-02-26 19:54:00,39.9,24.2,29.92,North,-999,-999.0,-999.0,53,-99.99,,,-99.99,,2013-02-27 00:54:00,
2013-02-26 19:59:00,39.6,24.8,29.92,North,-999,-999.0,-999.0,55,-99.99,,,-99.99,,2013-02-27 00:59:00,
2013-02-26 20:05:00,39.4,25.0,29.89,North,-999,-999.0,-999.0,56,-99.99,,,-99.99,,2013-02-27 01:05:00,
2013-02-26 20:10:00,39.2,25.3,29.89,North,-999,-999.0,-999.0,57,-99.99,,,-99.99,,2013-02-27 01:10:00,
2013-02-26 20:16:00,38.8,25.8,29.89,North,-999,-999.0,-999.0,59,-99.99,,,-99.99,,2013-02-27 01:16:00,
2013-02-26 20:21:00,38.5,25.8,29.89,North,-999,-999.0,-999.0,60,-99.99,,,-99.99,,2013-02-27 01:21:00,
2013-02-26 20:26:00,38.5,26.2,29.89,North,-999,-999.0,-999.0,61,-99.99,,,-99.99,,2013-02-27 01:26:00,
2013-02-26 20:31:00,38.5,26.6,29.89,North,-999,-999.0,-999.0,62,-99.99,,,-99.99,,2013-02-27 01:31:00,
2013-02-26 20:36:00,38.3,26.8,29.86,North,-999,-999.0,-999.0,63,-99.99,,,-99.99,,2013-02-27 01:36:00,
2013-02-26 20:42:00,38.1,26.7,29.86,North,-999,-999.0,-999.0,63,-99.99,,,-99.99,,2013-02-27 01:42:00,
2013-02-26 20:47:00,38.1,27.1,29.86,North,-999,-999.0,-999.0,64,-99.99,,,-99.99,,2013-02-27 01:47:00,
2013-02-26 20:52:00,37.9,27.3,29.86,North,-999,-999.0,-999.0,65,-99.99,,,-99.99,,2013-02-27 01:52:00,
2013-02-26 20:57:00,37.8,27.5,29.86,North,-999,-999.0,-999.0,66,-99.99,,,-99.99,,2013-02-27 01:57:00,
2013-02-26 21:02:00,37.6,27.6,29.86,North,-999,-999.0,-999.0,67,-99.99,,,-99.99,,2013-02-27 02:02:00,
2013-02-26 21:08:00,37.6,27.6,29.86,North,-999,-999.0,-999.0,67,-99.99,,,-99.99,,2013-02-27 02:08:00,
2013-02-26 21:14:00,37.6,27.6,29.86,North,-999,-999.0,-999.0,67,-99.99,,,-99.99,,2013-02-27 02:14:00,
2013-02-26 21:19:00,37.6,28.0,29.86,North,-999,-999.0,-999.0,68,-99.99,,,-99.99,,2013-02-27 02:19:00,
2013-02-26 21:24:00,37.6,28.0,29.86,North,-999,-999.0,-999.0,68,-99.99,,,-99.99,,2013-02-27 02:24:00,
2013-02-26 21:29:00,37.4,27.8,29.86,North,-999,-999.0,-999.0,68,-99.99,,,-99.99,,2013-02-27 02:29:00,
2013-02-26 21:34:00,37.2,28.0,29.86,North,-999,-999.0,-999.0,69,-99.99,,,-99.99,,2013-02-27 02:34:00,
2013-02-26 21:40:00,37.2,28.4,29.86,North,-999,-999.0,-999.0,70,-99.99,,,-99.99,,2013-02-27 02:40:00,
2013-02-26 21:45:00,37.0,28.2,29.86,North,-999,-999.0,-999.0,70,-99.99,,,-99.99,,2013-02-27 02:45:00,
2013-02-26 21:51:00,37.0,28.2,29.89,North,-999,-999.0,-999.0,70,-99.99,,,-99.99,,2013-02-27 02:51:00,
2013-02-26 21:56:00,37.0,28.2,29.89,North,-999,-999.0,-999.0,70,-99.99,,,-99.99,,2013-02-27 02:56:00,
2013-02-26 22:01:00,37.0,28.5,29.89,North,-999,-999.0,-999.0,71,-99.99,,,-99.99,,2013-02-27 03:01:00,
2013-02-26 22:07:00,37.0,28.5,29.89,North,-999,-999.0,-999.0,71,-99.99,,,-99.99,,2013-02-27 03:07:00,
2013-02-26 22:12:00,36.9,28.4,29.89,North,-999,-999.0,-999.0,71,-99.99,,,-99.99,,2013-02-27 03:12:00,
2013-02-26 22:17:00,37.0,28.5,29.89,North,-999,-999.0,-999.0,71,-99.99,,,-99.99,,2013-02-27 03:17:00,
2013-02-26 22:22:00,36.9,28.4,29.89,North,-999,-999.0,-999.0,71,-99.99,,,-99.99,,2013-02-27 03:22:00,
2013-02-26 22:28:00,36.7,28.2,29.89,North,-999,-999.0,-999.0,71,-99.99,,,-99.99,,2013-02-27 03:28:00,
2013-02-26 22:33:00,36.7,28.2,29.86,North,-999,-999.0,-999.0,71,-99.99,,,-99.99,,2013-02-27 03:33:00,
2013-02-26 22:39:00,36.7,28.5,29.86,North,-999,-999.0,-999.0,72,-99.99,,,-99.99,,2013-02-27 03:39:00,
2013-02-26 22:44:00,36.5,28.4,29.86,North,-999,-999.0,-999.0,72,-99.99,,,-99.99,,2013-02-27 03:44:00,
2013-02-26 22:49:00,36.3,28.2,29.86,North,-999,-999.0,-999.0,72,-99.99,,,-99.99,,2013-02-27 03:49:00,
2013-02-26 22:54:00,36.3,28.2,29.86,North,-999,-999.0,-999.0,72,-99.99,,,-99.99,,2013-02-27 03:54:00,
2013-02-26 23:00:00,36.3,28.5,29.86,North,-999,-999.0,-999.0,73,-99.99,,,-99.99,,2013-02-27 04:00:00,
2013-02-26 23:05:00,36.3,28.5,29.86,North,-999,-999.0,-999.0,73,-99.99,,,-99.99,,2013-02-27 04:05:00,
2013-02-26 23:11:00,36.3,28.5,29.86,North,-999,-999.0,-999.0,73,-99.99,,,-99.99,,2013-02-27 04:11:00,
2013-02-26 23:16:00,36.1,28.3,29.86,North,-999,-999.0,-999.0,73,-99.99,,,-99.99,,2013-02-27 04:16:00,
2013-02-26 23:21:00,36.1,28.7,29.86,North,-999,-999.0,-999.0,74,-99.99,,,-99.99,,2013-02-27 04:21:00,
2013-02-26 23:27:00,36.1,28.7,29.86,North,-999,-999.0,-999.0,74,-99.99,,,-99.99,,2013-02-27 04:27:00,
2013-02-26 23:32:00,36.1,28.7,29.86,North,-999,-999.0,-999.0,74,-99.99,,,-99.99,,2013-02-27 04:32:00,
2013-02-26 23:37:00,36.1,28.7,29.83,North,-999,-999.0,-999.0,74,-99.99,,,-99.99,,2013-02-27 04:37:00,
2013-02-26 23:42:00,36.1,29.0,29.83,North,-999,-999.0,-999.0,75,-99.99,,,-99.99,,2013-02-27 04:42:00,
2013-02-26 23:48:00,36.1,29.0,29.83,North,-999,-999.0,-999.0,75,-99.99,,,-99.99,,2013-02-27 04:48:00,
2013-02-26 23:54:00,36.1,29.0,29.83,North,-999,-999.0,-999.0,75,-99.99,,,-99.99,,2013-02-27 04:54:00,